Погода в Гуляшоре

Россия / Республика Коми     59°26′07″N   49°31′01″E
темп.,
°C
ветер,
м/с
пор.,
м/с
влажн.,
%
обл.,
%
осадки,
мм/ч
давл.,
гПа
погр.,
м
12 августа, пт
пт1200:00+12зюз3983100 0.0 1020181
03:00+13зюз31178100 0.0 1019293
06:00+15зюз41375100 0.0 1019468
09:00+20зюз5115778 0.0 1018922
12:00+23з694836 0.0 10161555
15:00+24з595398 0.0 10151949
18:00+19з4128098 0.5 1016651
21:00+18з411823 0.5 1016473
13 августа, сб
сб1300:00+15з312933 0.1 1016375
03:00+13сз311913 0.1 1018356
06:00+14сз39762 0.0 1020383
09:00+18ссз47475 0.0 10201098
12:00+20сз47420 0.0 10201867
15:00+21сз46412 0.0 10202021
18:00+18сз23643 0.0 102081
21:00+13с22740 0.0 102111
14 августа, вс
вс1400:00+11ссз11742 0.0 102110
03:00+10ссз11753 0.0 102210
06:00+13ссз12700 0.0 102378
09:00+18ссз23491 0.0 1022635
12:00+21сз23422 0.0 10221850
15:00+22сз23408 0.0 10221996
18:00+18с25642 0.0 1022111
21:00+12св22685 0.0 102330
15 августа, пн
пн1500:00+10всв11695 0.0 102310
03:00+9в11726 0.0 102410
06:00+12в01675 0.0 102449
09:00+19юв00495 0.0 1023481
12:00+22з23415 0.0 10231455
15:00+23зсз23405 0.0 10221755
18:00+20сз11645 0.0 102211
21:00+16зюз1173100 0.0 102311
16 августа, вт
вт1600:00+17юз116694 0.0 102315
03:00+14ссз22900 0.0 102422
06:00+15с23807 0.0 1025108
09:00+20ссв23537 0.0 1026590
12:00+23с23435 0.0 10261528
15:00+24с33405 0.0 10251713
18:00+19ссв226499 0.0 102629
21:00+14всв22635 0.0 102733